Location: Ferchesar
(52.6477°N, 12.4298°E)
Time: 09:27:08
(UTC+01:00)

S-56A Canister/Altair - Pass Details

Date: 12 December 2021
Orbit: 633 x 2499 km, 38.9° (Epoch: 19 January)

Event Time Altitude Azimuth Distance (km) Brightness Sun altitude
Rises 23:52:20 0° 252° (WSW) 5,651 - -60.3°
Reaches altitude 10° 23:56:48 10° 245° (WSW) 4,379 - -60.4°
Maximum altitude 00:06:28 34° 187° (S) 2,268 - -60.4°
Drops below altitude 10° 00:13:18 10° 125° (SE) 3,070 - -60.4°
Sets 00:15:52 0° 116° (ESE) 3,806 - -60.3°
